Погода в Ловране

Хорватия     45°17′37″N   14°16′35″E
темп.,
°C
ветер,
м/с
пор.,
м/с
влажн.,
%
обл.,
%
осадки,
мм/ч
давл.,
гПа
погр.,
м
17 августа, ср
ср1723:00+20ссв22890 0.0 101451
02:00+20ссв22916 0.0 101465
05:00+20с22910 0.0 101365
08:00+22св11814 0.0 1014140
11:00+24ююв22670 0.0 1014638
14:00+24ююв337122 0.0 1014662
17:00+24ю12703 0.0 1014416
20:00+21ссз11854 0.0 101337
18 августа, чт
чт1823:00+21с22798 0.0 101324
02:00+22ссз227326 0.0 101328
05:00+21с33710 0.0 101240
08:00+24св2261100 0.0 101270
11:00+27юв2249100 0.0 1012561
14:00+27юв234781 0.0 1012638
17:00+24юв136390 0.0 1011246
20:00+24с336195 0.0 101041
19 августа, пт
пт1923:00+22ссз4664100 0.1 100858
02:00+22ссз346998 0.3 100868
05:00+19св2382100 0.3 1009101
08:00+20всв238375 1.1 100984
11:00+25ю346446 1.1 1009857
14:00+25ююв126274 1.1 1010630
17:00+25ююв235891 0.0 1008873
20:00+22ссв227953 0.1 100940
20 августа, сб
сб2023:00+20ссз228657 0.9 101140
02:00+20ссз348572 1.8 101170
05:00+20ссз227771 0.0 101150
08:00+21с227368 0.0 101256
11:00+26вюв125058 0.0 1012702
14:00+28юв234486 0.0 10121348
17:00+25зсз225665 0.0 101394
20:00+23с22620 0.0 101320
21 августа, вс
вс2123:00+22с33630 0.0 101435
02:00+21с22632 0.0 101542
05:00+20с33620 0.0 101452
08:00+22ссв22590 0.0 101497
11:00+26ю12440 0.0 1014812
14:00+27ю334486 0.0 10131092
17:00+26зсз125395 0.0 1012113
20:00+24ссз3362100 0.0 101230